Home   Weather   Chevak   Past weeks
Flag for USA

Past Weather in Chevak, Alaska, USA — Yesterday and Last 2 Weeks

Now
21 °F

Broken clouds.


Feels Like: 6 °F
Forecast: 23 / 15 °F
Wind: 18 mph from North

Location: Hooper Bay Weather Reporting System

Current Time: Apr 20, 2019 at 12:26:15 pm

Latest Report: Apr 20, 2019 at 12:09 pm


Visibility: 5 mi

Pressure: 29.85 "Hg

Humidity: 86%

Dew Point: 18 °F

Location of ChevakLocation

Past Weather in Chevak — Graph

°F

Chevak Temperature Yesterday

Maximum temperature yesterday: 25 °F (at 12:25 am)
Minimum temperature yesterday: 21 °F (at 9:56 pm)
Average temperature yesterday: 22 °F

High & Low Weather Summary for the Past Weeks

 TemperatureHumidityPressure
High39 °F (Apr 8, 6:09 pm)100% (Apr 8, 8:34 am)29.94 "Hg (Apr 8, 8:34 am)
Low17 °F (Apr 6, 7:56 am)61% (Apr 18, 2:56 pm)29.32 "Hg (Apr 11, 2:56 pm)
Average26 °F84%29.70 "Hg
* Reported Apr 5 11:56 am — Apr 20 11:19 am, Chevak. Weather by CustomWeather, © 2019

Note: Actual official high and low records may vary slightly from our data, if they occured in-between our weather recording intervals... More about our weather records

Advertising

Chevak Weather History for the Previous 24 Hours

Scroll right to see more
 ConditionsComfort  
Time TempWeatherWind HumidityBarometerVisibility
11:19 am
Sat, Apr 20
21 °FLight snow. Ice fog.13 mph86%29.85 "Hg1 mi
10:53 am21 °FLight snow. Ice fog.18 mph86%29.83 "Hg2 mi
10:35 am21 °FLight snow. Ice fog.21 mph86%29.81 "Hg2 mi
10:10 am21 °FLight snow. Ice fog.17 mph86%29.79 "Hg1 mi
8:10 am19 °FScattered clouds.18 mph86%29.82 "Hg10 mi
7:52 am19 °FLight snow. Partly sunny.18 mph86%29.81 "Hg10 mi
7:18 am19 °FLight snow. Ice fog.17 mph86%29.81 "Hg6 mi
6:48 am21 °FLight snow. Ice fog.17 mph86%29.81 "Hg6 mi
6:06 am19 °FLight snow. Passing clouds.18 mph86%29.81 "Hg9 mi
5:21 am21 °FLight snow. Mostly cloudy.18 mph86%29.79 "Hg10 mi
5:09 am21 °FLight snow. Mostly cloudy.17 mph86%29.79 "Hg10 mi
3:56 am21 °FLight snow. Mostly cloudy.17 mph85%29.90 "Hg10 mi
2:56 am21 °FLight snow. Ice fog.20 mph88%29.90 "Hg4 mi
2:31 am21 °FLight snow. Ice fog.20 mph93%29.79 "Hg4 mi
2:23 am21 °FLight snow. Ice fog.18 mph93%29.78 "Hg2 mi
1:56 am22 °FLight snow. Ice fog.18 mph89%29.89 "Hg3 mi
12:56 am22 °FMostly cloudy.16 mph85%29.89 "Hg10 mi
10:56 pm
Fri, Apr 19
21 °FOvercast.12 mph81%29.90 "Hg10 mi
9:56 pm21 °FOvercast.16 mph78%29.88 "Hg10 mi
8:56 pm22 °FLight snow. Overcast.15 mph82%29.86 "Hg6 mi
8:28 pm23 °FLight snow. More clouds than sun.18 mph80%29.73 "Hg8 mi
7:56 pm23 °FLight snow. Overcast.15 mph78%29.87 "Hg10 mi
6:56 pm24 °FLight snow. More clouds than sun.16 mph75%29.87 "Hg10 mi
5:56 pm24 °FLight snow. Mostly cloudy.16 mph77%29.90 "Hg9 mi
4:47 pm23 °FLight snow. Mostly cloudy.20 mph80%29.77 "Hg8 mi
2:56 pm23 °FLight snow. Mostly cloudy.20 mph81%29.89 "Hg6 mi
1:56 pm23 °FLight snow. More clouds than sun.20 mph81%29.90 "Hg8 mi
1:14 pm23 °FLight snow. Mostly cloudy.17 mph80%29.78 "Hg10 mi
Weather by CustomWeather, © 2019

See weather overview